Location: Sungai Buloh
(3.1000°N, 113.0000°E)
Time: 15:40:54
(UTC+00:00)

ARIANE 6 FM1 Upper Stage - Pass Details

Date: 12 January 2026
Orbit: 522 x 609 km, 62.0° (Epoch: 11 February)

Event Time Altitude Azimuth Distance (km) Brightness Sun altitude
Rises 12:35:24 0° 208° (SSW) 2,801 6.9 -28.7°
Reaches altitude 10° 12:37:41 10° 210° (SSW) 1,886 5.9 -29.3°
Enters shadow 12:39:57 30° 215° (SW) 1,027 4.4 -29.8°
